Location: Chaumontel
(49.1247°N, 2.4324°E)
Time: 03:57:25
(UTC+00:00)

COSMOS 2428 - Visible Passes

Search period start: 29 September 2023 00:00
Search period end: 09 October 2023 00:00
Orbit: 846 x 855 km, 70.9° (Epoch: 28 September)

Date Brightness Start Highest point End Pass type
(mag) Time Alt. Az. Time Alt. Az. Time Alt. Az.
29 Sep 5.3 02:00:56 10° N 02:04:40 17° NE 02:08:23 10° ENE visible
29 Sep 3.1 03:44:23 10° NNW 03:50:04 65° ENE 03:55:44 10° SE visible
29 Sep 2.7 18:41:20 10° SSW 18:46:54 61° ESE 18:52:30 10° NE visible
29 Sep 4.5 20:26:39 10° WSW 20:31:33 29° NW 20:36:31 10° NNE visible
29 Sep 5.8 22:17:29 10° NNW 22:17:53 10° NNW 22:18:18 10° NNW visible
30 Sep 5.3 01:48:32 10° N 01:52:16 17° NE 01:55:59 10° ENE visible
30 Sep 3.1 03:31:59 10° NNW 03:37:40 65° ENE 03:43:20 10° SE visible
30 Sep 3.7 05:17:01 10° NW 05:21:26 24° WSW 05:25:51 10° SSW visible
30 Sep 2.7 18:28:56 10° SSW 18:34:31 61° ESE 18:40:07 10° NE visible
30 Sep 4.6 20:14:15 10° WSW 20:19:10 29° NW 20:24:07 10° NNE visible
30 Sep 5.8 22:05:03 10° NNW 22:05:30 10° NNW 22:05:56 10° NNW visible
01 Oct 5.3 01:36:09 10° N 01:39:52 17° NE 01:43:35 10° ENE visible
01 Oct 3.1 03:19:36 10° NNW 03:25:17 65° ENE 03:30:57 10° SE visible
01 Oct 3.7 05:04:37 10° NW 05:09:03 24° WSW 05:13:29 10° SSW visible
01 Oct 2.7 18:16:33 10° SSW 18:22:07 61° ESE 18:27:43 10° NE visible
01 Oct 4.6 20:01:51 10° WSW 20:06:46 29° NW 20:11:43 10° NNE visible
01 Oct 5.8 21:52:36 10° NNW 21:53:05 10° NNW 21:53:35 10° NNW visible
02 Oct 5.2 01:23:45 10° N 01:27:28 17° NE 01:31:10 10° ENE visible
02 Oct 3.0 03:07:12 10° NNW 03:12:53 65° ENE 03:18:32 10° SE visible
02 Oct 3.7 04:52:14 10° NW 04:56:40 24° WSW 05:01:05 10° SSW visible
02 Oct 2.8 18:04:10 10° SSW 18:09:43 61° ESE 18:15:19 10° NE visible
02 Oct 4.6 19:49:27 10° WSW 19:54:23 29° NW 19:59:20 10° NNE visible
02 Oct 5.8 21:40:11 10° NNW 21:40:42 10° NNW 21:41:13 10° NNW visible
03 Oct 5.2 01:11:22 10° N 01:15:04 17° NE 01:18:46 10° ENE visible
03 Oct 3.0 02:54:48 10° NNW 03:00:29 65° ENE 03:06:09 10° SE visible
03 Oct 3.7 04:39:50 10° NW 04:44:16 24° WSW 04:48:42 10° SSW visible
03 Oct 2.8 17:51:45 10° S 17:57:20 61° ESE 18:02:56 10° NE visible
03 Oct 4.6 19:37:03 10° WSW 19:41:59 30° NW 19:46:56 10° NNE visible
03 Oct 5.7 21:27:44 10° NNW 21:28:17 10° NNW 21:28:51 10° NNW visible
04 Oct 5.2 00:58:58 10° N 01:02:40 17° NE 01:06:22 10° ENE visible
04 Oct 3.0 02:42:25 10° NNW 02:48:06 65° ENE 02:53:45 10° SE visible
04 Oct 3.7 04:27:26 10° NW 04:31:52 24° WSW 04:36:19 10° SSW visible
04 Oct 4.6 19:24:39 10° WSW 19:29:35 30° NW 19:34:33 10° NNE visible
04 Oct 5.7 21:15:19 10° NNW 21:15:54 10° NNW 21:16:29 10° NNW visible
05 Oct 5.1 00:46:34 10° N 00:50:16 17° NE 00:50:35 17° NE visible
05 Oct 4.3 02:30:01 10° NNW 02:39:34 21° SE 02:41:22 10° SE visible
05 Oct 4.1 04:21:56 18° SW 04:21:56 18° SW 04:23:56 10° SSW visible
05 Oct 4.6 19:12:14 10° WSW 19:17:11 30° NW 19:22:09 10° NNE visible
05 Oct 5.7 21:02:52 10° NNW 21:03:29 10° NNW 21:04:07 10° NNW visible
06 Oct 5.3 00:34:10 10° N 00:36:13 15° NNE 00:36:13 15° NNE visible
06 Oct 5.1 02:17:37 10° NNW 02:18:06 12° NNW 02:18:06 12° NNW visible
06 Oct5.404:13:41SSW04:13:41SSW04:00:00NWvisible
06 Oct 4.6 18:59:51 10° WSW 19:04:47 30° NW 19:09:45 10° NNE visible
06 Oct 5.7 20:50:26 10° NNW 20:51:05 10° NNW 20:51:44 10° NNW visible
07 Oct 5.4 00:21:47 10° N 00:22:56 13° N 00:22:56 13° N visible
07 Oct 4.6 18:47:26 10° WSW 18:52:23 30° NW 18:57:21 10° NNE visible
07 Oct 5.6 20:38:01 10° NNW 20:38:41 10° NNW 20:39:22 10° NNW visible
08 Oct 5.5 00:09:22 10° N 00:10:01 12° N 00:10:01 12° N visible
08 Oct 4.6 18:35:02 10° WSW 18:39:58 30° NW 18:44:57 10° NNE visible
08 Oct 5.6 20:25:34 10° NNW 20:26:17 10° NNW 20:27:00 10° NNW visible
